Location: Unspecified
(0.0000°N, 0.0000°E)
Time: 14:12:23
(UTC+00:00)

Hubble Space Telescope - Pass Details

Date: 11 January 2018
Orbit: 537 x 541 km, 28.5° (Epoch: 20 January)

Event Time Altitude Azimuth Distance (km) Brightness Sun altitude
Rises 19:25:32 0° 213° (SSW) 2,676 5.3 -17.9°
Reaches altitude 10° 19:28:30 10° 191° (SSW) 1,785 3.9 -18.6°
Maximum altitude 19:31:07 16° 152° (SSE) 1,435 2.9 -19.2°
Enters shadow 19:31:54 15° 138° (SE) 1,469 2.8 -19.4°
